UAE2121 KLAX-KSFO

Flight info

Callsign UAE2121
Flight time N/A
Altitude 32000
Route SUMMR2 STOKD SERFR SERFR4
Aircraft A388/J-SADE2E3FGHIJ3J4J5M1RWXY/LB1D1

Departure

Time 2026-05-05 05:44
Airport Los Angeles International Airport (KLAX)

Arrival

Time N/A
Airport San Francisco International Airport (KSFO)
Time Latitude Longitude Altitude Speed Heading
2026-05-05 05:14 33.94097 -118.41107 131 ft 0 kts 83°
2026-05-05 05:35 33.94097 -118.41109 131 ft 2 kts 82°
2026-05-05 05:35 33.94089 -118.41126 128 ft 2 kts 45°
2026-05-05 05:35 33.94073 -118.41131 130 ft 2 kts 10°
2026-05-05 05:35 33.94066 -118.41132 125 ft 0 kts
2026-05-05 05:38 33.94069 -118.41132 131 ft 2 kts 360°
2026-05-05 05:38 33.94127 -118.41155 128 ft 17 kts 336°
2026-05-05 05:38 33.94280 -118.41225 126 ft 26 kts 351°
2026-05-05 05:39 33.94461 -118.41249 128 ft 26 kts 352°
2026-05-05 05:39 33.94625 -118.41277 128 ft 24 kts 353°
2026-05-05 05:39 33.94759 -118.41281 126 ft 15 kts 32°
2026-05-05 05:39 33.94807 -118.41169 127 ft 18 kts 82°
2026-05-05 05:40 33.94830 -118.40937 127 ft 35 kts 83°
2026-05-05 05:40 33.94865 -118.40590 127 ft 48 kts 83°
2026-05-05 05:40 33.94900 -118.40241 126 ft 37 kts 83°
2026-05-05 05:40 33.94926 -118.40003 131 ft 19 kts 80°
2026-05-05 05:41 33.94990 -118.39926 125 ft 10 kts 345°
2026-05-05 05:41 33.95028 -118.39980 129 ft 9 kts 279°
2026-05-05 05:41 33.95030 -118.40070 130 ft 12 kts 264°
2026-05-05 05:41 33.95020 -118.40157 127 ft 0 kts 263°
2026-05-05 05:42 33.95019 -118.40172 126 ft 5 kts 263°
2026-05-05 05:42 33.95016 -118.40194 127 ft 0 kts 263°
2026-05-05 05:43 33.95013 -118.40223 128 ft 6 kts 263°
2026-05-05 05:43 33.94992 -118.40420 129 ft 63 kts 263°
2026-05-05 05:43 33.94903 -118.41273 126 ft 136 kts 263°
2026-05-05 05:43 33.94765 -118.42540 425 ft 158 kts 262°
2026-05-05 05:44 33.94607 -118.43842 1107 ft 157 kts 262°
2026-05-05 05:44 33.94446 -118.45154 1808 ft 157 kts 262°
2026-05-05 05:44 33.94291 -118.46523 2190 ft 175 kts 265°
2026-05-05 05:44 33.94256 -118.48067 2544 ft 195 kts 270°
2026-05-05 05:45 33.94242 -118.49804 3075 ft 218 kts 269°
2026-05-05 05:45 33.94164 -118.51727 3651 ft 241 kts 264°
2026-05-05 05:45 33.94002 -118.53819 4386 ft 256 kts 264°
2026-05-05 05:45 33.93832 -118.55974 5353 ft 261 kts 263°
2026-05-05 05:46 33.93659 -118.58157 6377 ft 264 kts 263°
2026-05-05 05:46 33.93483 -118.60375 7333 ft 268 kts 263°
2026-05-05 05:46 33.93305 -118.62620 8314 ft 271 kts 263°
2026-05-05 05:46 33.93128 -118.64859 9295 ft 274 kts 264°
2026-05-05 05:47 33.92948 -118.67162 10243 ft 279 kts 264°
2026-05-05 05:47 33.92763 -118.69558 10689 ft 299 kts 264°
2026-05-05 05:47 33.92563 -118.72146 10968 ft 321 kts 264°
2026-05-05 05:47 33.92352 -118.74867 11604 ft 329 kts 264°
2026-05-05 05:48 33.92137 -118.77628 11952 ft 332 kts 264°
2026-05-05 05:48 33.91920 -118.80404 11994 ft 333 kts 264°
2026-05-05 05:48 33.91722 -118.83165 11984 ft 332 kts 267°
2026-05-05 05:48 33.91769 -118.85958 12160 ft 334 kts 272°
2026-05-05 05:49 33.91866 -118.88764 12781 ft 336 kts 271°
2026-05-05 05:49 33.91951 -118.91575 13693 ft 337 kts 271°
2026-05-05 05:49 33.92033 -118.94409 14422 ft 340 kts 271°
2026-05-05 05:49 33.92114 -118.97269 15135 ft 344 kts 270°
2026-05-05 05:50 33.92340 -119.00147 15822 ft 349 kts 279°
2026-05-05 05:50 33.93053 -119.02962 16547 ft 355 kts 290°
2026-05-05 05:50 33.94236 -119.05592 17216 ft 362 kts 299°
2026-05-05 05:50 33.95597 -119.08163 17860 ft 366 kts 299°
2026-05-05 05:51 33.96956 -119.10778 18505 ft 370 kts 298°
2026-05-05 05:51 33.98318 -119.13418 19096 ft 372 kts 298°
2026-05-05 05:51 33.99708 -119.16063 19665 ft 376 kts 301°
2026-05-05 05:51 34.01382 -119.18526 20247 ft 383 kts 310°
2026-05-05 05:52 34.03377 -119.20692 20818 ft 390 kts 319°
2026-05-05 05:52 34.05607 -119.22596 21354 ft 394 kts 321°
2026-05-05 05:52 34.07855 -119.24511 21909 ft 398 kts 321°
2026-05-05 05:52 34.10119 -119.26457 22450 ft 400 kts 320°
2026-05-05 05:53 34.12391 -119.28417 23010 ft 404 kts 320°
2026-05-05 05:53 34.14689 -119.30400 23535 ft 407 kts 320°
2026-05-05 05:53 34.16998 -119.32391 24001 ft 410 kts 320°
2026-05-05 05:53 34.19328 -119.34399 24463 ft 413 kts 320°
2026-05-05 05:54 34.21670 -119.36420 24927 ft 416 kts 320°
2026-05-05 05:54 34.24032 -119.38459 25393 ft 419 kts 320°
2026-05-05 05:54 34.26410 -119.40514 25880 ft 422 kts 320°
2026-05-05 05:54 34.28804 -119.42584 26385 ft 425 kts 320°
2026-05-05 05:55 34.31217 -119.44672 26900 ft 428 kts 320°
2026-05-05 05:55 34.33647 -119.46776 27427 ft 432 kts 320°
2026-05-05 05:55 34.36095 -119.48897 27912 ft 436 kts 320°
2026-05-05 05:55 34.37732 -119.50317 27977 ft 438 kts 320°
2026-05-05 05:56 34.40201 -119.52485 27970 ft 435 kts 317°
2026-05-05 05:56 34.42460 -119.54878 27971 ft 430 kts 311°
2026-05-05 05:56 34.44546 -119.57474 27977 ft 430 kts 310°
2026-05-05 05:56 34.46642 -119.60060 27973 ft 430 kts 310°
2026-05-05 05:57 34.48746 -119.62638 27970 ft 429 kts 311°
2026-05-05 05:57 34.50843 -119.65212 27977 ft 430 kts 311°
2026-05-05 05:57 34.53635 -119.68645 27976 ft 437 kts 311°
2026-05-05 05:57 34.55090 -119.70441 27975 ft 449 kts 311°
2026-05-05 05:58 34.57318 -119.73194 27980 ft 465 kts 311°
2026-05-05 05:58 34.59620 -119.76039 27980 ft 482 kts 311°
2026-05-05 05:58 34.62004 -119.78986 27973 ft 494 kts 311°
2026-05-05 05:58 34.64427 -119.81979 27973 ft 497 kts 312°
2026-05-05 05:59 34.66852 -119.84973 28000 ft 498 kts 312°
2026-05-05 05:59 34.69278 -119.87975 28001 ft 498 kts 312°
2026-05-05 05:59 34.74125 -119.93984 28005 ft 497 kts 312°
2026-05-05 06:00 34.78968 -120.00003 28005 ft 498 kts 312°
2026-05-05 06:00 34.83773 -120.05984 28005 ft 498 kts 313°
2026-05-05 06:01 34.88644 -120.12058 28007 ft 498 kts 313°
2026-05-05 06:01 34.93447 -120.18060 28014 ft 498 kts 313°
2026-05-05 06:02 34.98286 -120.24116 28017 ft 499 kts 313°
2026-05-05 06:02 35.03133 -120.30194 28006 ft 500 kts 313°
2026-05-05 06:03 35.07976 -120.36277 28016 ft 499 kts 314°
2026-05-05 06:03 35.12972 -120.42175 28007 ft 500 kts 317°
2026-05-05 06:04 35.18152 -120.47838 28014 ft 499 kts 318°
2026-05-05 06:04 35.23294 -120.53550 28005 ft 501 kts 318°
2026-05-05 06:05 35.28437 -120.59325 28065 ft 503 kts 318°
2026-05-05 06:05 35.33577 -120.65115 28066 ft 502 kts 318°
2026-05-05 06:06 35.38720 -120.70919 28061 ft 503 kts 319°
2026-05-05 06:06 35.43872 -120.76743 28059 ft 503 kts 319°
2026-05-05 06:07 35.49073 -120.82495 28070 ft 503 kts 323°
2026-05-05 06:07 35.54656 -120.87649 28066 ft 503 kts 326°
2026-05-05 06:08 35.60239 -120.92835 28065 ft 503 kts 326°
2026-05-05 06:08 35.65814 -120.98024 28060 ft 503 kts 327°
2026-05-05 06:09 35.71397 -121.03224 28062 ft 503 kts 327°
2026-05-05 06:09 35.76978 -121.08433 28054 ft 504 kts 327°
2026-05-05 06:10 35.82563 -121.13654 28055 ft 504 kts 328°
2026-05-05 06:10 35.88150 -121.18888 28044 ft 505 kts 328°
2026-05-05 06:11 35.93748 -121.24140 28037 ft 505 kts 328°
2026-05-05 06:11 35.99346 -121.29403 28088 ft 507 kts 329°
2026-05-05 06:12 36.04951 -121.34682 28242 ft 508 kts 329°
2026-05-05 06:12 36.07812 -121.37235 28460 ft 504 kts 334°
2026-05-05 06:12 36.10789 -121.39528 28935 ft 505 kts 335°
2026-05-05 06:13 36.13759 -121.41837 29075 ft 502 kts 335°
2026-05-05 06:13 36.16696 -121.44137 28468 ft 497 kts 334°
2026-05-05 06:13 36.19577 -121.46391 27623 ft 494 kts 334°
2026-05-05 06:13 36.22455 -121.48646 27090 ft 491 kts 334°
2026-05-05 06:14 36.25389 -121.50942 26804 ft 490 kts 334°
2026-05-05 06:14 36.28263 -121.53190 26554 ft 488 kts 334°
2026-05-05 06:14 36.31091 -121.55407 26472 ft 487 kts 334°
2026-05-05 06:14 36.33953 -121.57652 26397 ft 485 kts 334°
2026-05-05 06:15 36.36810 -121.59895 26201 ft 484 kts 334°
2026-05-05 06:15 36.39637 -121.62118 25635 ft 478 kts 333°
2026-05-05 06:15 36.42419 -121.64308 24821 ft 473 kts 333°
2026-05-05 06:15 36.45199 -121.66495 23974 ft 469 kts 333°
2026-05-05 06:16 36.47929 -121.68647 23431 ft 464 kts 333°
2026-05-05 06:16 36.50637 -121.70782 22992 ft 454 kts 332°
2026-05-05 06:16 36.53243 -121.72848 22677 ft 433 kts 332°
2026-05-05 06:16 36.55718 -121.74813 22412 ft 410 kts 332°
2026-05-05 06:17 36.58059 -121.76672 22157 ft 389 kts 333°
2026-05-05 06:17 36.60312 -121.78456 21367 ft 383 kts 333°
2026-05-05 06:17 36.62565 -121.80229 20436 ft 383 kts 332°
2026-05-05 06:17 36.64805 -121.81997 19691 ft 379 kts 332°
2026-05-05 06:18 36.67006 -121.83740 19292 ft 372 kts 331°
2026-05-05 06:18 36.69180 -121.85465 18806 ft 368 kts 331°
2026-05-05 06:18 36.71316 -121.87162 18294 ft 360 kts 331°
2026-05-05 06:18 36.73450 -121.88686 17748 ft 348 kts 338°
2026-05-05 06:19 36.75663 -121.89776 17242 ft 335 kts 346°
2026-05-05 06:19 36.77877 -121.90469 16787 ft 324 kts 352°
2026-05-05 06:19 36.80082 -121.91054 16330 ft 323 kts 351°
2026-05-05 06:19 36.82266 -121.91663 15888 ft 321 kts 350°
2026-05-05 06:20 36.84435 -121.92276 15438 ft 318 kts 350°
2026-05-05 06:20 36.86584 -121.92882 14997 ft 316 kts 350°
2026-05-05 06:20 36.88720 -121.93483 14560 ft 313 kts 349°
2026-05-05 06:20 36.90833 -121.94075 14133 ft 310 kts 349°
2026-05-05 06:21 36.92936 -121.94663 13674 ft 308 kts 349°
2026-05-05 06:21 36.95018 -121.95251 13235 ft 306 kts 347°
2026-05-05 06:21 36.97060 -121.96024 12840 ft 307 kts 343°
2026-05-05 06:21 36.99102 -121.96832 12381 ft 307 kts 344°
2026-05-05 06:22 37.01131 -121.97624 11951 ft 304 kts 344°
2026-05-05 06:22 37.03115 -121.98396 11522 ft 302 kts 343°
2026-05-05 06:22 37.05116 -121.99174 11101 ft 301 kts 343°
2026-05-05 06:22 37.07111 -121.99952 10687 ft 299 kts 343°
2026-05-05 06:23 37.09091 -122.00725 10279 ft 297 kts 343°
2026-05-05 06:23 37.11029 -122.01483 10123 ft 287 kts 343°
2026-05-05 06:23 37.12950 -122.02234 9893 ft 284 kts 343°
2026-05-05 06:23 37.14634 -122.02893 9768 ft 282 kts 343°
2026-05-05 06:24 37.16512 -122.03630 9628 ft 283 kts 343°
2026-05-05 06:24 37.18405 -122.04370 9316 ft 286 kts 343°
2026-05-05 06:24 37.20299 -122.05111 8981 ft 283 kts 343°
2026-05-05 06:24 37.22166 -122.05840 8665 ft 278 kts 342°
2026-05-05 06:25 37.23995 -122.06556 8340 ft 274 kts 342°
2026-05-05 06:25 37.25806 -122.07266 8108 ft 271 kts 342°
2026-05-05 06:25 37.27605 -122.07972 8004 ft 272 kts 342°
2026-05-05 06:25 37.29421 -122.08687 7856 ft 274 kts 342°
2026-05-05 06:26 37.31234 -122.09402 7584 ft 278 kts 341°
2026-05-05 06:26 37.33067 -122.10125 7194 ft 276 kts 341°
2026-05-05 06:26 37.34901 -122.10849 6821 ft 274 kts 341°
2026-05-05 06:26 37.36715 -122.11565 6259 ft 273 kts 341°
2026-05-05 06:27 37.38499 -122.12260 6049 ft 263 kts 342°
2026-05-05 06:27 37.41855 -122.13401 5824 ft 238 kts 343°
2026-05-05 06:27 37.43421 -122.13919 5746 ft 227 kts 343°
2026-05-05 06:28 37.44906 -122.14418 5663 ft 212 kts 343°
2026-05-05 06:28 37.46245 -122.14867 5412 ft 192 kts 343°
2026-05-05 06:28 37.47523 -122.15286 4951 ft 188 kts 343°
2026-05-05 06:28 37.48782 -122.15698 4448 ft 185 kts 343°
2026-05-05 06:29 37.49988 -122.16091 4149 ft 167 kts 343°
2026-05-05 06:29 37.51027 -122.16427 3931 ft 144 kts 342°
2026-05-05 06:29 37.51975 -122.16738 3557 ft 138 kts 342°
2026-05-05 06:29 37.52891 -122.17058 3158 ft 135 kts 337°
2026-05-05 06:30 37.53666 -122.17686 2877 ft 130 kts 311°
2026-05-05 06:30 37.54167 -122.18584 2846 ft 131 kts 299°
2026-05-05 06:30 37.54596 -122.19598 2838 ft 131 kts 296°
2026-05-05 06:30 37.55023 -122.20623 2747 ft 132 kts 297°
2026-05-05 06:31 37.55458 -122.21647 2567 ft 132 kts 296°
2026-05-05 06:31 37.55878 -122.22660 2398 ft 131 kts 297°
2026-05-05 06:31 37.56306 -122.23671 2211 ft 129 kts 297°
2026-05-05 06:31 37.56724 -122.24675 2046 ft 130 kts 297°
2026-05-05 06:32 37.57145 -122.25673 1862 ft 128 kts 297°
2026-05-05 06:32 37.57560 -122.26668 1685 ft 128 kts 297°
2026-05-05 06:32 37.57981 -122.27666 1501 ft 130 kts 297°
2026-05-05 06:32 37.58398 -122.28669 1332 ft 129 kts 297°
2026-05-05 06:33 37.58820 -122.29673 1145 ft 130 kts 297°
2026-05-05 06:33 37.59237 -122.30674 971 ft 130 kts 298°
2026-05-05 06:33 37.59658 -122.31670 774 ft 127 kts 298°
2026-05-05 06:33 37.60047 -122.32666 591 ft 126 kts 295°
2026-05-05 06:34 37.60438 -122.33651 449 ft 125 kts 299°
2026-05-05 06:34 37.60869 -122.34599 300 ft 124 kts 299°
2026-05-05 06:34 37.61259 -122.35515 153 ft 123 kts 298°
2026-05-05 06:34 37.61663 -122.36466 48 ft 122 kts 298°
2026-05-05 06:35 37.62034 -122.37329 24 ft 94 kts 298°